Showing default

GOES 19, 60133

Orbit data source: Space-Track

GOES 19, 60133 is a payload satellite owned by NOAA (US) in GEO that was launched on Tue, 25 Jun 2024 UTC via an FALCON HEAVY launch vehicle from the Air Force Eastern Test Range (AFETR). Payload-class satellites include a variety of spacecraft equipped with specific instruments for various scientific and technological missions. These include communications satellites like Starlink; space stations such as the ISS; scientific satellites like the Hubble; Earth observation satellites from companies like Planet Labs, Umbra, and HawkEye 360; GPS; miniature CubeSats for education and research; and military/defense satellites.

Loading next visibility...
Identifier
60133, 2024-119A
Orbit
GEO
Country
Flag of USUS
Related business
Manufacturer
LMCSS
Mission
Operational Civil Weather
Bus & Motor
A2100, LEROS-1C
Mass
~5,000 kg wet, 2,925 kg dry
Launch date (UTC)
2024-06-25 (1 year ago)
Launch vehicle
FALCON HEAVY
Launch site
Air Force Eastern Test Range (AFETR)
Object type
Payload
Rocket body
Debris
Shape & HBR
Box + 1 Pan + 1 Rod, 20.0 m
Radar Cross Section
37.561 m²

Expand to show TLE details & history
Last TLE update: 11 hours ago

TLE from 11 hours ago
0 GOES 19
1 60133U 24119A   25296.10559377 -.00000238  00000-0  00000+0 0  9994
2 60133   0.0031  52.1760 0000730 231.3940  71.0570  1.00272114  4587
Epoch: 2025-10-23T02:32Z
TLE epoch observation values (Epoch: 2025-10-23T02:32:03.301Z)
Latitude
-0.01908°
Longitude
-75.18229°
Altitude
35,785.007 km
Speed
3.075 km/s
True Right ascension
23h 38m 24s
True Declination
0° 01' 09"
Sunlit
Object was in daylight at epoch
Visualization orbit readout
Latitude
Unknown
Longitude
Unknown
Altitude
Unknown
Speed
Unknown
Apparent Right ascension
Unknown
Apparent Declination
Unknown
Sunlit
N/A
Visualization observer readout
Local Sidereal Time
09:05:08
Azimuth
Unknown
Elevation
Unknown
Doppler factor
Unknown
Orbital elements
Apogee altitude
35,790.651 km
Perigee altitude
35,784.495 km
Semi-major axis
42,165.71 km
Eccentricity
0.00007
Inclination
0.0031°
RAAN
52.176°
Arg. of periapsis
231.394°
True anomaly
71.06491°
Mean anomaly
71.057°
Eccentric anomaly
71.06096°
Mean motion
0.25067 °/min
Orbital period
1,436.15 mins
BSTAR
0
Loading maneuver chart data...
Computing Atmospheric mass density...
Loading historical data...
Loading historical data...
Loading historical data...
Loading historical data...
Loading historical data...
Loading historical data...
Loading historical data...
Other satellites on launch #119 in the year 2024 (2024-06-25 UTC)

Documentation

Showing up to 5 results
|